San Francisco, CA (94131)

6:50 AM PDT on March 30, 2017 (GMT -0700)
MC9629 | | Change Station
Active Advisory: Wind Advisory

Elev 393 ft 37.74 °N, 122.44 °W | Updated 15 days ago

Clear
Clear
76.0 °F
Feels Like 78 °F
N
1.0
Wind Variable Wind from ENE

Today
High -- | Low -- °F
--% Chance of Precip.
Yesterday
High -- | Low -- °F
Precip. -- in
Pressure 30.09 in
Visibility 10.0 miles
Clouds Scattered Clouds 1600 ft
Heat Index 78 °F
Dew Point 57.0 °F
Humidity 52%
Rainfall 0.00 in
Snow Depth Not available.
6:57 AM 7:31 PM
Waxing Crescent, 8% visible
METAR KSFO 301256Z 29022G31KT 10SM SCT016 11/08 A3009 RMK AO2 PK WND 28037/1232 SLP188 T01110083
Pressure 30.09 in
Visibility 10.0 miles
Clouds Scattered Clouds 1600 ft
Heat Index 78 °F
Dew Point 57.0 °F
Humidity 52%
Rainfall 0.00 in
Snow Depth Not available.
6:57 AM 7:31 PM
Waxing Crescent, 8% visible
METAR KSFO 301256Z 29022G31KT 10SM SCT016 11/08 A3009 RMK AO2 PK WND 28037/1232 SLP188 T01110083

Get Your Daily Forecast Email!

Thanks for signing up!

Be on the lookout for a verification email in your inbox.

You'll start receiving severe weather alerts in your inbox..

×

10-Day Weather Forecast

Almanac

Astronomy

Mar. 30, 2017 Rise Set
Actual Time
Civil Twilight
Nautical Twilight
Astronomical Twilight
Moon
Length of Visible Light
Length of Day
Tomorrow will be .
, % of the Moon is Illuminated

Today's Extremes

State Highs State Lows

Community

WunderPhotos

Upload Photos

1,962,540 photos uploaded!

WunderBlog® & News

Nearby

Air Quality

  Air Quality AQ Index Pollutant
Not available.

Snow Depth

Station Depth Elevation

Earthquake Activity

City Distance Mag. Time & Date
Minimum magnitude displayed is 2.5.

Earthquake Activity

City Distance Mag. Time & Date
Minimum magnitude displayed is 2.5.

Coastal Water Temperatures

Place Temperature

Stations

Nearby Weather Stations

Station Location Temp. Windchill Dew Point Humidity Wind Precip. Elev Updated Type
                   

Watches & Warnings

Wind Advisory
Issued: 12:35 AM PDT Mar. 30, 2017 – National Weather Service

... Wind Advisory remains in effect from noon today to 8 PM PDT
this evening...

* timing... winds will increase by midday Thursday and remain
strong and gusty into Thursday evening. Strongest winds are
expected from mid afternoon through early evening Thursday.

* Winds... northwest winds of 20 to 30 mph are forecast along
with gusts up to 45 mph.

* Impacts... possible downed trees and limbs, blowing debris, and
local power outages.

Precautionary/preparedness actions...

A Wind Advisory means that wind gusts of at least 45 mph are
expected. Winds this strong can make driving difficult...
especially for high profile vehicles. Use extra caution.